Location: Sungai Dangang
(2.7500°N, 113.8333°E)
Time: 22:00:17
(UTC+00:00)

Cosmos 2278 Rocket - Pass Details

Date: 16 May 2021
Orbit: 841 x 845 km, 71.0° (Epoch: 15 June)

Event Time Altitude Azimuth Distance (km) Brightness Sun altitude
Rises 12:04:49 0° 211° (SSW) 3,394 5.5 -23.4°
Reaches altitude 10° 12:07:25 10° 219° (SW) 2,457 4.8 -24.0°
Maximum altitude 12:12:35 38° 286° (WNW) 1,266 3.6 -25.2°
Drops below altitude 10° 12:17:45 10° 353° (N) 2,448 4.9 -26.4°
Sets 12:20:21 0° 1° (N) 3,381 5.6 -27.0°
